Home   Weather   Pirmasens   Past weeks

Flag for Germany Past Weather in Pirmasens, Rhineland-Palatinate, Germany — Yesterday and Last 2 Weeks

Now
58 °F

Overcast.


Feels Like: 58 °F
Forecast: 50 / 64 °F
Wind: No wind

Location: Ramstein

Current Time: Sep 26, 2016 at 10:57:47 PM

Latest Report: Sep 26, 2016 at 9:58 PM


Visibility: N/A

Pressure: 30.22 "Hg

Humidity: 96%

Dew Point: 57 °F

Location of PirmasensLocation

Past Weather in Pirmasens — Graph

°F

Pirmasens Temperature Yesterday

Maximum temperature yesterday: 79 °F (at 4:58 PM)
Minimum temperature yesterday: 35 °F (at 6:58 AM)
Average temperature yesterday: 56 °F

High & Low Weather Summary for the Past Weeks

 TemperatureHumidityPressure
High90 °F (Sep 13, 3:58 PM)100% (Sep 12, 2:58 AM)30.33 "Hg (Sep 12, 2:58 AM)
Low35 °F (Sep 22, 7:58 AM)31% (Sep 14, 2:58 PM)29.79 "Hg (Sep 15, 4:58 AM)
Average59 °F82%30.06 "Hg
* Reported Sep 11 8:58 PM — Sep 26 8:58 PM, Pirmasens, Weather by CustomWeather, © 2016

Note: Actual official high and low records may vary slightly from our data, if they occured in-between our weather recording intervals... More about our weather records

Advertising

Pirmasens Weather History for the Previous 24 Hours

Scroll right to see more
 ConditionsComfort  
Time TempWeatherWind HumidityBarometerVisibility
8:58 PM
Mon, Sep 26
57 °FOvercast.No wind96%30.22 "HgN/A
7:58 PM59 °FPassing clouds.No wind93%30.19 "HgN/A
7:48 PM59 °FPassing clouds.No wind94%30.19 "HgN/A
6:58 PM62 °FPartly sunny.1 mph77%30.19 "HgN/A
5:58 PM65 °FPassing clouds.1 mph65%30.18 "HgN/A
4:58 PM66 °FPartly sunny.No wind64%30.18 "HgN/A
3:58 PM64 °FPartly sunny.No wind68%30.19 "HgN/A
2:58 PM63 °FBroken clouds.No wind68%30.20 "HgN/A
1:58 PM63 °FPartly sunny.1 mph67%30.21 "HgN/A
12:58 PM63 °FPartly sunny.No wind68%30.21 "HgN/A
11:58 AM61 °FPartly sunny.1 mph69%30.22 "HgN/A
10:58 AM59 °FPartly sunny.1 mph72%30.24 "HgN/A
9:58 AM58 °FPartly sunny.No wind78%30.24 "HgN/A
8:58 AM57 °FPartly sunny.No wind82%30.22 "HgN/A
7:58 AM56 °FOvercast.No wind95%30.22 "HgN/A
6:58 AM54 °FPassing clouds.No wind99%30.19 "HgN/A
5:58 AM53 °FPassing clouds.No wind99%30.19 "HgN/A
4:58 AM50 °FPartly cloudy.No wind100%30.18 "HgN/A
3:58 AM53 °FPassing clouds.No wind99%30.18 "HgN/A
2:58 AM53 °FPassing clouds.No wind99%30.17 "HgN/A
1:58 AM52 °FPassing clouds.No wind100%30.16 "HgN/A
1:01 AM55 °FPassing clouds.No wind94%30.17 "HgN/A
11:58 PM
Sun, Sep 25
54 °FOvercast.No wind99%30.14 "HgN/A
10:58 PM51 °FPassing clouds.No wind99%30.14 "HgN/A
Weather by CustomWeather, © 2016

See weather overviewHow to use our weather pages